Satellite-Ground Cal/Val Site Overpasses Predictions

Prediction of Satellite NPP Overpassing Cal/Val Site: Antarctic Dome C

Ground Cal/Val Site Location: Latitude: -75.10, Longitude: 123.35; Satellite-Ground Site NADIR distance within 100 km.

Table of predicted overpasses for the next 14.0 days since TLE Epoch: 6/10/2015
Interval Starting Time Ending Time Minimum Distance Time Minimum Distance (km)
1 06/11/2015 15:12:16 06/11/2015 15:12:26 06/11/2015 15:12:21 92.87
2 06/12/2015 14:53:17 06/12/2015 14:53:46 06/12/2015 14:53:31 18.37
3 06/14/2015 07:36:05 06/14/2015 07:36:35 06/14/2015 07:36:20 3.49
4 06/17/2015 14:59:30 06/17/2015 14:59:59 06/17/2015 14:59:45 18.30
5 06/18/2015 14:40:49 06/18/2015 14:41:02 06/18/2015 14:40:56 88.67
6 06/19/2015 07:42:20 06/19/2015 07:42:47 06/19/2015 07:42:34 39.76
7 06/20/2015 07:23:33 06/20/2015 07:23:54 06/20/2015 07:23:44 70.34
8 06/22/2015 15:05:47 06/22/2015 15:06:11 06/22/2015 15:05:59 55.60
9 06/23/2015 14:46:56 06/23/2015 14:47:21 06/23/2015 14:47:09 53.61
